{"data":{"norad_id":68470,"intl_designator":"2026-067BG","name":"LUNA-2","alt_names":[],"object_type":"PAYLOAD","status":"ACTIVE","operator":null,"country":"TURK","launch_date":"2026-03-30","launch_site_code":"AFWTR","launch_vehicle":null,"mission":null,"orbit_class":"UNKNOWN","rcs_meters":null,"size_class":null,"mass_kg":null,"dimensions":null,"purposes":[],"wikipedia_slug":null,"has_3d_model":false,"image_url":null,"decayed_at":null,"tle_current":{"epoch":"2026-05-24T20:24:22.705056Z","epoch_age_seconds":98544,"freshness":"FRESH","line1":"1 68470U 26067BG  26144.85026279  .00005184  00000+0  26456-3 0  9995","line2":"2 68470  97.4461 103.5149 0008185 137.5425 222.6443 15.17123544  8396","mean_motion":15.17123544,"eccentricity":0.0008185,"inclination_deg":97.4461,"raan_deg":103.5149,"arg_perigee_deg":137.5425,"mean_anomaly_deg":222.6443,"bstar":0.00026456,"rev_number":839,"period_min":94.916462518493,"perigee_km":508.89752772359,"apogee_km":520.18083863545,"semimajor_km":6892.6761831795,"source":"CELESTRAK","updated_at":"2026-05-25T13:38:07.848442Z"}}}